[[{"header":{"parameterUnit":"m.s-1","parameterCategory":1,"la1":30.2992,"la2":30.254,"lo1":-89.0895,"lo2":-89.0443,"dy":0.0025,"dx":0.0025,"nx":19,"ny":19,"refTime":"2026-03-23T09:00:00:Z","depth":0,"parameterNumber":2,"parameterNumberName":"U-component_of_WINDS"},"data":[0,0,0,3.2357,3.2359,3.247,3.2471,3.2614,3.2615,0,0,0,0,0,0,0,0,0,0,0,3.2321,3.2322,3.2356,3.2359,3.247,3.2471,3.2614,3.2615,0,0,0,0,0,0,0,0,0,0,0,3.2321,3.2322,3.2323,3.2359,3.247,3.2471,3.2613,3.253,0,0,0,0,0,0,0,0,0,0,3.2422,3.2386,3.2322,3.2323,3.236,3.247,3.2471,3.2526,3.2535,3.2563,0,3.2585,0,3.2602,3.2625,3.2625,0,0,0,3.2362,3.2379,3.241,3.2323,3.2361,3.247,3.2421,3.2531,3.2541,3.2575,3.2587,3.2592,3.2605,3.2626,3.2626,3.2774,3.2775,0,0,3.2355,3.2341,3.2403,3.2417,3.2397,3.2417,3.2424,3.2537,3.255,3.2588,3.2596,3.2607,3.2626,3.2628,3.2774,3.2774,0,0,0,3.2336,3.2336,3.2365,3.2411,3.2431,3.242,3.2428,3.2545,3.2556,3.2597,3.2609,3.2627,3.2629,3.2773,3.2774,3.2787,0,0,0,3.2333,3.2325,3.2363,3.2355,3.2429,3.2489,3.2433,3.2548,3.2561,3.2608,3.2627,3.263,3.2772,3.2774,3.2785,3.2796,0,0,0,3.2315,3.2323,3.2338,3.2354,3.2401,3.2487,3.2504,3.2551,3.2568,3.2625,3.2631,3.2772,3.2773,3.2784,3.2793,3.283,0,0,0,3.2293,3.2349,3.2338,3.2406,3.24,3.2494,3.2504,3.2575,3.2626,3.2628,3.2773,3.2774,3.2783,3.2792,3.2828,3.2858,3.2869,0,0,3.2356,3.2356,3.2397,3.2391,3.2482,3.2478,3.2573,3.2635,3.2655,3.2734,3.2738,3.2786,3.2793,3.283,3.2936,3.2944,0,0,0,3.2413,3.2442,3.247,3.2516,3.2563,3.2605,3.2653,3.2677,3.2744,3.2692,3.281,3.2815,3.2837,3.2852,3.2859,3.2879,3.278,3.278,3.278,3.2481,3.2502,3.2572,3.2607,3.2653,3.2702,3.2742,3.2782,3.2792,3.282,3.2843,3.2904,3.2921,3.2926,3.2947,3.2861,3.2861,3.2861,3.2861,3.2575,3.262,3.2631,3.2702,3.2726,3.2788,3.2839,3.2844,3.2906,3.2888,3.2909,3.2886,3.2935,3.2954,3.2862,3.2862,3.2862,3.2862,3.2861,3.2621,3.2646,3.2673,3.2743,3.2795,3.2831,3.2889,3.291,3.293,3.295,3.2977,3.2977,3.2979,3.2962,3.2962,3.2962,3.2962,3.2962,3.2963,3.2658,3.2687,3.2733,3.2789,3.2822,3.2868,3.292,3.2954,3.2998,3.3008,3.3009,3.3016,3.2935,3.2914,3.2966,3.2965,3.2965,3.2965,3.2964,3.2744,3.2728,3.2798,3.2831,3.29,3.2951,3.2976,3.3045,3.3076,3.3105,3.3109,3.3046,3.3049,3.3043,3.3026,3.3104,3.3104,3.3104,3.3104,3.2782,3.2785,3.2862,3.2914,3.2968,3.2998,3.308,3.3123,3.3164,3.3186,3.3178,3.3157,3.315,3.3157,3.3149,3.3133,3.3237,3.3237,3.3237,3.2836,3.2846,3.291,3.2948,3.3003,3.3051,3.3129,3.3191,3.3235,3.3243,3.3203,3.3198,3.3164,3.3152,3.3157,3.3144,3.3116,0,0]},{"header":{"parameterUnit":"m.s-1","parameterCategory":1,"la1":30.2992,"la2":30.254,"lo1":-89.0895,"lo2":-89.0443,"dy":0.0025,"dx":0.0025,"nx":19,"ny":19,"refTime":"2026-03-23T09:00:00:Z","depth":0,"parameterNumber":3,"parameterNumberName":"V-component_of_WINDS"},"data":[0,0,0,0.4437,0.4438,0.4448,0.4448,0.447,0.447,0,0,0,0,0,0,0,0,0,0,0,0.444,0.4441,0.4437,0.4438,0.4448,0.4448,0.447,0.447,0,0,0,0,0,0,0,0,0,0,0,0.444,0.4441,0.4441,0.4438,0.4448,0.4448,0.447,0.4459,0,0,0,0,0,0,0,0,0,0,0.4448,0.4456,0.444,0.4441,0.4438,0.4448,0.4448,0.4458,0.446,0.4469,0,0.448,0,0.4475,0.4472,0.4472,0,0,0,0.4434,0.4455,0.4452,0.4441,0.4438,0.4448,0.4442,0.4459,0.446,0.4471,0.448,0.448,0.4476,0.4472,0.4473,0.4543,0.4543,0,0,0.4433,0.4445,0.4451,0.4454,0.4453,0.4442,0.4442,0.446,0.447,0.448,0.4481,0.4476,0.4473,0.4473,0.4542,0.4543,0,0,0,0.4434,0.4445,0.4442,0.4453,0.4454,0.4442,0.4443,0.4469,0.4467,0.4481,0.4476,0.4473,0.4473,0.4542,0.4543,0.4581,0,0,0,0.4434,0.4446,0.4442,0.445,0.4454,0.4462,0.4452,0.4466,0.4467,0.4476,0.4473,0.4473,0.4541,0.4542,0.4579,0.4598,0,0,0,0.4438,0.4446,0.445,0.445,0.4455,0.4461,0.446,0.4466,0.4465,0.4472,0.4474,0.4541,0.4542,0.4577,0.4594,0.462,0,0,0,0.4446,0.4484,0.4451,0.4492,0.4455,0.4485,0.446,0.4481,0.4492,0.4473,0.4541,0.4542,0.4576,0.4592,0.4618,0.4645,0.4657,0,0,0.4502,0.4492,0.4515,0.4485,0.4524,0.4482,0.4527,0.4525,0.4514,0.4534,0.4535,0.458,0.4594,0.462,0.4719,0.4728,0,0,0,0.4537,0.4554,0.4561,0.4572,0.4571,0.4572,0.4562,0.4561,0.4577,0.4527,0.4595,0.4603,0.4618,0.463,0.4638,0.465,0.4548,0.4548,0.4548,0.4635,0.4618,0.4655,0.464,0.465,0.4639,0.4646,0.4643,0.4623,0.4639,0.4646,0.4708,0.4723,0.4729,0.4741,0.4658,0.4658,0.4658,0.4658,0.4716,0.4738,0.4709,0.4735,0.4717,0.4739,0.4729,0.4714,0.4731,0.4702,0.4714,0.4685,0.474,0.475,0.4661,0.466,0.466,0.466,0.4659,0.478,0.4787,0.4785,0.4797,0.4809,0.4791,0.4809,0.4791,0.4775,0.4787,0.4792,0.4791,0.4789,0.479,0.479,0.4791,0.4791,0.4791,0.4791,0.4848,0.4843,0.486,0.4861,0.4865,0.4868,0.4855,0.4858,0.4858,0.4844,0.4844,0.4823,0.4748,0.473,0.4794,0.4794,0.4793,0.4793,0.4793,0.4938,0.4914,0.4941,0.4945,0.4943,0.4956,0.4933,0.4941,0.4941,0.495,0.4926,0.4873,0.4862,0.4855,0.484,0.4929,0.4929,0.4929,0.4929,0.4993,0.4984,0.5007,0.5014,0.5019,0.5,0.503,0.502,0.5006,0.5005,0.4989,0.4967,0.4961,0.4953,0.4944,0.493,0.504,0.504,0.504,0.5048,0.5039,0.5068,0.5053,0.5051,0.5049,0.5076,0.5085,0.5064,0.5045,0.5003,0.4999,0.4963,0.4953,0.4934,0.4921,0.4895,0,0]}]]